Year,Month,Day,Hour,Minute,Value (Times are PST for temperature in C)
2015,06,16,10,26,19.10
2015,06,16,10,27,19.10
2015,06,16,10,28,19.20
2015,06,16,10,29,19.30
2015,06,16,10,30,19.40
2015,06,16,10,31,19.40
2015,06,16,10,32,19.50
2015,06,16,10,33,19.60
2015,06,16,10,34,19.70
2015,06,16,10,35,19.70
2015,06,16,10,36,19.70
2015,06,16,10,37,19.80
2015,06,16,10,38,19.80
2015,06,16,10,39,19.90
2015,06,16,10,40,20.00
2015,06,16,10,41,20.10
2015,06,16,10,42,20.10
2015,06,16,10,43,20.10
2015,06,16,10,44,20.10
2015,06,16,10,45,20.10
2015,06,16,10,46,20.10
2015,06,16,10,47,20.10
2015,06,16,10,48,20.10
2015,06,16,10,49,20.10
2015,06,16,10,50,20.10
2015,06,16,10,51,20.20
2015,06,16,10,52,20.20
2015,06,16,10,53,20.20
2015,06,16,10,54,20.30
2015,06,16,10,55,20.40
2015,06,16,10,56,20.40
2015,06,16,10,57,20.30
2015,06,16,10,58,20.30
2015,06,16,10,59,20.40
2015,06,16,11,00,20.60
2015,06,16,11,01,20.60
2015,06,16,11,02,20.50
2015,06,16,11,03,20.60
2015,06,16,11,04,20.50
2015,06,16,11,05,20.40
2015,06,16,11,06,20.40
2015,06,16,11,07,20.40
2015,06,16,11,08,20.50
2015,06,16,11,09,20.60
2015,06,16,11,10,20.60
2015,06,16,11,11,20.70
2015,06,16,11,12,20.80
2015,06,16,11,13,20.80
2015,06,16,11,14,20.80
2015,06,16,11,15,20.70
2015,06,16,11,16,20.70
2015,06,16,11,17,20.80
2015,06,16,11,18,20.80
2015,06,16,11,19,20.80
2015,06,16,11,20,20.80
2015,06,16,11,21,20.70
2015,06,16,11,22,20.70
2015,06,16,11,23,20.60
2015,06,16,11,24,20.50
2015,06,16,11,25,20.50
2015,06,16,11,26,20.50
2015,06,16,11,27,20.50
2015,06,16,11,28,20.40
2015,06,16,11,29,20.40
2015,06,16,11,30,20.50
2015,06,16,11,31,20.50
2015,06,16,11,32,20.60
2015,06,16,11,33,20.60
2015,06,16,11,34,20.70
2015,06,16,11,35,20.70
2015,06,16,11,36,20.80
2015,06,16,11,37,20.90
2015,06,16,11,38,20.80
2015,06,16,11,39,20.70
2015,06,16,11,40,20.80
2015,06,16,11,41,20.80
2015,06,16,11,42,20.70
2015,06,16,11,43,20.60
2015,06,16,11,44,20.60
2015,06,16,11,45,20.70
2015,06,16,11,46,20.80
2015,06,16,11,47,21.00
2015,06,16,11,48,21.20
2015,06,16,11,49,21.20
2015,06,16,11,50,21.20
2015,06,16,11,51,21.20
2015,06,16,11,52,21.20
2015,06,16,11,53,21.20
2015,06,16,11,54,21.30
2015,06,16,11,55,21.30
2015,06,16,11,56,21.30
2015,06,16,11,57,21.30
2015,06,16,11,58,21.30
2015,06,16,11,59,21.30
2015,06,16,12,00,21.20
2015,06,16,12,01,21.20
2015,06,16,12,02,21.20
2015,06,16,12,03,21.10
2015,06,16,12,04,21.10
2015,06,16,12,05,21.10
2015,06,16,12,06,21.10
2015,06,16,12,07,21.10
2015,06,16,12,08,21.20
2015,06,16,12,09,21.20
2015,06,16,12,10,21.20
2015,06,16,12,11,21.40
2015,06,16,12,12,21.60
2015,06,16,12,13,21.70
2015,06,16,12,14,21.80
2015,06,16,12,15,22.00
2015,06,16,12,16,22.10
2015,06,16,12,17,22.20
2015,06,16,12,18,22.20
2015,06,16,12,19,22.20
2015,06,16,12,20,22.10
2015,06,16,12,21,22.10
2015,06,16,12,22,22.20
2015,06,16,12,23,22.20
2015,06,16,12,24,22.30
2015,06,16,12,25,22.30
2015,06,16,12,26,22.30
2015,06,16,12,27,22.20
2015,06,16,12,28,22.10
2015,06,16,12,29,22.00
2015,06,16,12,30,21.90
2015,06,16,12,31,21.90
2015,06,16,12,32,21.90
2015,06,16,12,33,22.00
2015,06,16,12,34,22.00
2015,06,16,12,35,22.00
2015,06,16,12,36,22.00
2015,06,16,12,37,21.90
2015,06,16,12,38,21.90
2015,06,16,12,39,21.80
2015,06,16,12,40,21.70
2015,06,16,12,41,21.70
2015,06,16,12,42,21.70
2015,06,16,12,43,21.80
2015,06,16,12,44,21.80
2015,06,16,12,45,21.90
2015,06,16,12,46,22.10
2015,06,16,12,47,22.20
2015,06,16,12,48,22.40
2015,06,16,12,49,22.40
2015,06,16,12,50,22.30
2015,06,16,12,51,22.20
2015,06,16,12,52,21.90
2015,06,16,12,53,21.70
2015,06,16,12,54,21.60
2015,06,16,12,55,21.70
2015,06,16,12,56,21.90
2015,06,16,12,57,21.90
2015,06,16,12,58,22.00
2015,06,16,12,59,21.90
2015,06,16,13,00,21.80
2015,06,16,13,01,21.70
2015,06,16,13,02,21.60
2015,06,16,13,03,21.60
2015,06,16,13,04,21.80
2015,06,16,13,05,21.80
2015,06,16,13,06,22.00
2015,06,16,13,07,22.10
2015,06,16,13,08,22.10
2015,06,16,13,09,22.20
2015,06,16,13,10,22.30
2015,06,16,13,11,22.30
2015,06,16,13,12,22.40
2015,06,16,13,13,22.50
2015,06,16,13,14,22.60
2015,06,16,13,15,22.40
2015,06,16,13,16,22.10
2015,06,16,13,17,21.90
2015,06,16,13,18,21.80
2015,06,16,13,19,21.80
2015,06,16,13,20,21.80
2015,06,16,13,21,21.90
2015,06,16,13,22,22.00
2015,06,16,13,23,22.20
2015,06,16,13,24,22.40
2015,06,16,13,25,22.50
2015,06,16,13,26,22.50
2015,06,16,13,27,22.40
2015,06,16,13,28,22.40
2015,06,16,13,29,22.40
2015,06,16,13,30,22.60
2015,06,16,13,31,22.70
2015,06,16,13,32,22.70
2015,06,16,13,33,22.70
2015,06,16,13,34,22.70
2015,06,16,13,35,22.80
2015,06,16,13,36,22.90
2015,06,16,13,37,22.90
2015,06,16,13,38,23.00
2015,06,16,13,39,23.00
2015,06,16,13,40,23.00
2015,06,16,13,41,23.00
2015,06,16,13,42,23.00
2015,06,16,13,43,23.00
2015,06,16,13,44,22.90
2015,06,16,13,45,23.00
2015,06,16,13,46,23.10
2015,06,16,13,47,23.20
2015,06,16,13,48,23.20
2015,06,16,13,49,23.20
2015,06,16,13,50,23.20
2015,06,16,13,51,23.20
2015,06,16,13,52,23.20
2015,06,16,13,53,23.20
2015,06,16,13,54,23.20
2015,06,16,13,55,23.20
2015,06,16,13,56,23.30
2015,06,16,13,57,23.30
2015,06,16,13,58,23.30
2015,06,16,13,59,23.50
2015,06,16,14,00,23.50
2015,06,16,14,01,23.50
2015,06,16,14,02,23.50
2015,06,16,14,03,23.60
2015,06,16,14,04,23.60
2015,06,16,14,05,23.50
2015,06,16,14,06,23.40
2015,06,16,14,07,23.40
2015,06,16,14,08,23.50
2015,06,16,14,09,23.40
2015,06,16,14,10,23.40
2015,06,16,14,11,23.30
2015,06,16,14,12,23.20
2015,06,16,14,13,23.20
2015,06,16,14,14,23.20
2015,06,16,14,15,23.20
2015,06,16,14,16,23.10
2015,06,16,14,17,23.20
2015,06,16,14,18,23.20
2015,06,16,14,19,23.20
2015,06,16,14,20,23.20
2015,06,16,14,21,23.10
2015,06,16,14,22,23.00
2015,06,16,14,23,23.10
2015,06,16,14,24,23.20
2015,06,16,14,25,23.20
2015,06,16,14,26,23.20
2015,06,16,14,27,23.30
2015,06,16,14,28,23.30
2015,06,16,14,29,23.30
2015,06,16,14,30,23.40
2015,06,16,14,31,23.60
2015,06,16,14,32,23.60
2015,06,16,14,33,23.60
2015,06,16,14,34,23.60
2015,06,16,14,35,23.60
2015,06,16,14,36,23.60
2015,06,16,14,37,23.60
2015,06,16,14,38,23.60
2015,06,16,14,39,23.50
2015,06,16,14,40,23.50
2015,06,16,14,41,23.60
2015,06,16,14,42,23.60
2015,06,16,14,43,23.60
2015,06,16,14,44,23.60
2015,06,16,14,45,23.70
2015,06,16,14,46,23.70
2015,06,16,14,47,23.80
2015,06,16,14,48,23.60
2015,06,16,14,49,23.50
2015,06,16,14,50,23.30
2015,06,16,14,51,23.30
2015,06,16,14,52,23.40
2015,06,16,14,53,23.50
2015,06,16,14,54,23.60
2015,06,16,14,55,23.80
2015,06,16,14,56,23.80
2015,06,16,14,57,23.90
2015,06,16,14,58,23.90
2015,06,16,14,59,23.80
2015,06,16,15,00,23.70
2015,06,16,15,01,23.70
2015,06,16,15,02,23.50
2015,06,16,15,03,23.20
2015,06,16,15,04,23.10
2015,06,16,15,05,23.10
2015,06,16,15,06,23.10
2015,06,16,15,07,23.00
2015,06,16,15,08,23.00
2015,06,16,15,09,23.00
2015,06,16,15,10,23.10
2015,06,16,15,11,23.10
2015,06,16,15,12,23.10
2015,06,16,15,13,23.10
2015,06,16,15,14,23.10
2015,06,16,15,15,23.10
2015,06,16,15,16,23.20
2015,06,16,15,17,23.30
2015,06,16,15,18,23.40
2015,06,16,15,19,23.50
2015,06,16,15,20,23.60
2015,06,16,15,21,23.60
2015,06,16,15,22,23.70
2015,06,16,15,23,23.80
2015,06,16,15,24,23.80
2015,06,16,15,25,23.60
2015,06,16,15,26,23.40
2015,06,16,15,27,23.40
2015,06,16,15,28,23.40
2015,06,16,15,29,23.50
2015,06,16,15,30,23.50
2015,06,16,15,31,23.40
2015,06,16,15,32,23.30
2015,06,16,15,33,23.10
2015,06,16,15,34,23.10
2015,06,16,15,35,23.10
2015,06,16,15,36,23.00
2015,06,16,15,37,23.10
2015,06,16,15,38,23.20
2015,06,16,15,39,23.20
2015,06,16,15,40,23.30
2015,06,16,15,41,23.20
2015,06,16,15,42,23.10
2015,06,16,15,43,23.10
2015,06,16,15,44,23.10
2015,06,16,15,45,23.10
2015,06,16,15,48,23.40
2015,06,16,15,49,23.40
2015,06,16,15,50,23.40
2015,06,16,15,51,23.40
2015,06,16,15,52,23.40
2015,06,16,15,53,23.40
2015,06,16,15,54,23.40
2015,06,16,15,55,23.40
2015,06,16,15,56,23.30
2015,06,16,15,57,23.30
2015,06,16,15,58,23.30
2015,06,16,15,59,23.30
2015,06,16,16,00,23.20
2015,06,16,16,01,23.10
2015,06,16,16,02,23.00
2015,06,16,16,03,23.00
2015,06,16,16,04,22.90
2015,06,16,16,05,22.90
2015,06,16,16,06,23.10
2015,06,16,16,07,23.20
2015,06,16,16,08,23.20
2015,06,16,16,09,23.30
2015,06,16,16,10,23.30
2015,06,16,16,11,23.30
2015,06,16,16,12,23.20
2015,06,16,16,13,23.20
2015,06,16,16,14,23.20
2015,06,16,16,15,23.20
2015,06,16,16,16,23.20
2015,06,16,16,17,23.20
2015,06,16,16,18,23.20
2015,06,16,16,19,23.20
2015,06,16,16,20,23.20
2015,06,16,16,21,23.20
2015,06,16,16,22,23.30
2015,06,16,16,23,23.30
2015,06,16,16,24,23.40
2015,06,16,16,25,23.50
2015,06,16,16,26,23.50
2015,06,16,16,27,23.40
2015,06,16,16,28,23.30
2015,06,16,16,29,23.30
2015,06,16,16,30,23.30
2015,06,16,16,31,23.30
2015,06,16,16,32,23.40
2015,06,16,16,33,23.50
2015,06,16,16,34,23.40
2015,06,16,16,35,23.30
2015,06,16,16,36,23.20
2015,06,16,16,37,23.20
2015,06,16,16,38,23.20
2015,06,16,16,39,23.30
2015,06,16,16,40,23.30
2015,06,16,16,41,23.10
2015,06,16,16,42,23.10
2015,06,16,16,43,23.10
2015,06,16,16,44,23.20
2015,06,16,16,45,23.30
2015,06,16,16,46,23.40
2015,06,16,16,47,23.40
2015,06,16,16,48,23.50
2015,06,16,16,49,23.60
2015,06,16,16,50,23.70
2015,06,16,16,51,23.70
2015,06,16,16,52,23.50
2015,06,16,16,53,23.30
2015,06,16,16,54,23.20
2015,06,16,16,55,23.20
2015,06,16,16,56,23.10
2015,06,16,16,57,23.10
2015,06,16,16,58,23.10
2015,06,16,16,59,23.20
2015,06,16,17,00,23.20
2015,06,16,17,01,23.20
2015,06,16,17,02,23.20
2015,06,16,17,03,23.20
2015,06,16,17,04,23.30
2015,06,16,17,05,23.30
2015,06,16,17,06,23.40
2015,06,16,17,07,23.60
2015,06,16,17,08,23.70
2015,06,16,17,09,23.90
2015,06,16,17,10,24.00
2015,06,16,17,11,24.00
2015,06,16,17,12,24.00
2015,06,16,17,13,23.80
2015,06,16,17,14,23.70
2015,06,16,17,15,23.50
2015,06,16,17,16,23.50
2015,06,16,17,17,23.40
2015,06,16,17,18,23.40
2015,06,16,17,19,23.30
2015,06,16,17,20,23.30
2015,06,16,17,21,23.30
2015,06,16,17,22,23.30
2015,06,16,17,23,23.40
2015,06,16,17,24,23.50
2015,06,16,17,25,23.60
2015,06,16,17,26,23.60
2015,06,16,17,27,23.50
2015,06,16,17,28,23.50
2015,06,16,17,29,23.40
2015,06,16,17,30,23.40
2015,06,16,17,31,23.30
2015,06,16,17,32,23.30
2015,06,16,17,33,23.30
2015,06,16,17,34,23.30
2015,06,16,17,35,23.50
2015,06,16,17,36,23.60
2015,06,16,17,37,23.70
2015,06,16,17,38,23.70
2015,06,16,17,39,23.70
2015,06,16,17,40,23.70
2015,06,16,17,41,23.80
2015,06,16,17,42,23.80
2015,06,16,17,43,23.80
2015,06,16,17,44,23.70
2015,06,16,17,45,23.60
2015,06,16,17,46,23.40
2015,06,16,17,47,23.30
2015,06,16,17,48,23.20
2015,06,16,17,49,23.10
2015,06,16,17,50,23.00
2015,06,16,17,51,22.90
2015,06,16,17,52,22.80
2015,06,16,17,53,22.80
2015,06,16,17,54,22.70
2015,06,16,17,55,22.70
2015,06,16,17,56,22.70
2015,06,16,17,57,22.80
2015,06,16,17,58,22.80
2015,06,16,17,59,22.70
2015,06,16,18,00,22.70
2015,06,16,18,01,22.70
2015,06,16,18,02,22.80
2015,06,16,18,03,22.80
2015,06,16,18,04,22.80
2015,06,16,18,05,22.80
2015,06,16,18,06,22.80
2015,06,16,18,07,22.90
2015,06,16,18,08,22.80
2015,06,16,18,09,22.80
2015,06,16,18,10,22.80
2015,06,16,18,11,22.80
2015,06,16,18,12,22.80
2015,06,16,18,13,22.90
2015,06,16,18,14,23.00
2015,06,16,18,15,23.10
2015,06,16,18,16,23.10
2015,06,16,18,17,23.10
2015,06,16,18,18,23.10
2015,06,16,18,19,23.10
2015,06,16,18,20,23.20
2015,06,16,18,21,23.20
2015,06,16,18,22,23.20
2015,06,16,18,23,23.20
2015,06,16,18,24,23.20
2015,06,16,18,25,23.20
2015,06,16,18,26,23.20
2015,06,16,18,27,23.20
2015,06,16,18,28,23.20
2015,06,16,18,29,23.20
2015,06,16,18,30,23.30
2015,06,16,18,31,23.20
2015,06,16,18,32,23.20
2015,06,16,18,33,23.30
2015,06,16,18,34,23.30
2015,06,16,18,35,23.40
2015,06,16,18,36,23.50
2015,06,16,18,37,23.50
2015,06,16,18,38,23.60
2015,06,16,18,39,23.50
2015,06,16,18,40,23.50
2015,06,16,18,41,23.40
2015,06,16,18,42,23.30
2015,06,16,18,43,23.20
2015,06,16,18,44,23.20
2015,06,16,18,45,23.20
2015,06,16,18,46,23.10
2015,06,16,18,47,23.00
2015,06,16,18,48,23.00
2015,06,16,18,49,23.00
2015,06,16,18,50,22.90
2015,06,16,18,51,22.90
2015,06,16,18,52,22.90
2015,06,16,18,53,22.90
2015,06,16,18,54,22.90
2015,06,16,18,55,22.80
2015,06,16,18,56,22.80
2015,06,16,18,57,22.70
2015,06,16,18,58,22.70
2015,06,16,18,59,22.60
2015,06,16,19,00,22.60
2015,06,16,19,01,22.60
2015,06,16,19,02,22.50
2015,06,16,19,03,22.40
2015,06,16,19,04,22.40
2015,06,16,19,05,22.30
2015,06,16,19,06,22.30
2015,06,16,19,07,22.20
2015,06,16,19,08,22.10
2015,06,16,19,09,22.10
2015,06,16,19,10,22.00
2015,06,16,19,11,22.00
2015,06,16,19,12,22.00
2015,06,16,19,13,21.90
2015,06,16,19,14,21.90
2015,06,16,19,15,21.90
2015,06,16,19,16,21.90
2015,06,16,19,17,21.80
2015,06,16,19,18,21.80
2015,06,16,19,19,21.80
2015,06,16,19,20,21.80
2015,06,16,19,21,21.80
2015,06,16,19,22,21.80
2015,06,16,19,23,21.80
2015,06,16,19,24,21.80
2015,06,16,19,25,21.80
2015,06,16,19,26,21.80
2015,06,16,19,27,21.80
2015,06,16,19,28,21.80
2015,06,16,19,29,21.80
2015,06,16,19,30,21.80
2015,06,16,19,31,21.80
2015,06,16,19,32,21.80
2015,06,16,19,33,21.80
2015,06,16,19,34,21.80
2015,06,16,19,35,21.80
2015,06,16,19,36,21.70
2015,06,16,19,37,21.70
2015,06,16,19,38,21.70
2015,06,16,19,39,21.60
2015,06,16,19,40,21.60
2015,06,16,19,41,21.50
2015,06,16,19,42,21.50
2015,06,16,19,43,21.40
2015,06,16,19,44,21.40
2015,06,16,19,45,21.40
2015,06,16,19,46,21.30
2015,06,16,19,47,21.30
2015,06,16,19,48,21.20
2015,06,16,19,49,21.20
2015,06,16,19,50,21.20
2015,06,16,19,51,21.20
2015,06,16,19,52,21.20
2015,06,16,19,53,21.20
2015,06,16,19,54,21.20
2015,06,16,19,55,21.20
2015,06,16,19,56,21.20
2015,06,16,19,57,21.20
2015,06,16,19,58,21.20
2015,06,16,19,59,21.20
2015,06,16,20,00,21.10
2015,06,16,20,01,21.10
2015,06,16,20,02,21.10
2015,06,16,20,03,21.10
2015,06,16,20,04,21.10
2015,06,16,20,05,21.10
2015,06,16,20,06,21.00
2015,06,16,20,07,21.00
2015,06,16,20,08,21.00
2015,06,16,20,09,20.90
2015,06,16,20,10,20.90
2015,06,16,20,11,20.90
2015,06,16,20,12,20.90
2015,06,16,20,13,20.90
2015,06,16,20,14,20.90
2015,06,16,20,15,20.80
2015,06,16,20,16,20.80
2015,06,16,20,17,20.80
2015,06,16,20,18,20.80
2015,06,16,20,19,20.80
2015,06,16,20,20,20.80
2015,06,16,20,21,20.80
2015,06,16,20,22,20.70
2015,06,16,20,23,20.70
2015,06,16,20,24,20.70
2015,06,16,20,25,20.70
2015,06,16,20,26,20.60
2015,06,16,20,27,20.60
2015,06,16,20,28,20.60
2015,06,16,20,29,20.50
2015,06,16,20,30,20.50
2015,06,16,20,31,20.50
2015,06,16,20,32,20.40
2015,06,16,20,33,20.40
2015,06,16,20,34,20.40
2015,06,16,20,35,20.40
2015,06,16,20,36,20.30
2015,06,16,20,37,20.30
2015,06,16,20,38,20.30
2015,06,16,20,39,20.20
2015,06,16,20,40,20.20
2015,06,16,20,41,20.20
2015,06,16,20,42,20.10
2015,06,16,20,43,20.10
2015,06,16,20,44,20.00
2015,06,16,20,45,20.00
2015,06,16,20,46,20.00
2015,06,16,20,47,19.90
2015,06,16,20,48,19.90
2015,06,16,20,49,19.80
2015,06,16,20,50,19.80
2015,06,16,20,51,19.70
2015,06,16,20,52,19.70
2015,06,16,20,53,19.60
2015,06,16,20,54,19.60
2015,06,16,20,55,19.60
2015,06,16,20,56,19.50
2015,06,16,20,57,19.50
2015,06,16,20,58,19.40
2015,06,16,20,59,19.40
2015,06,16,21,00,19.40
2015,06,16,21,01,19.30
2015,06,16,21,02,19.30
2015,06,16,21,03,19.30
2015,06,16,21,04,19.20
2015,06,16,21,05,19.20
2015,06,16,21,06,19.10
2015,06,16,21,07,19.10
2015,06,16,21,08,19.00
2015,06,16,21,09,19.00
2015,06,16,21,10,18.90
2015,06,16,21,11,18.90
2015,06,16,21,12,18.80
2015,06,16,21,13,18.80
2015,06,16,21,14,18.80
2015,06,16,21,15,18.70
2015,06,16,21,16,18.70
2015,06,16,21,17,18.60
2015,06,16,21,18,18.60
2015,06,16,21,19,18.60
2015,06,16,21,20,18.50
2015,06,16,21,21,18.50
2015,06,16,21,22,18.40
2015,06,16,21,23,18.30
2015,06,16,21,24,18.30
2015,06,16,21,25,18.20
2015,06,16,21,26,18.10
2015,06,16,21,27,18.10
2015,06,16,21,28,18.00
2015,06,16,21,29,18.00
2015,06,16,21,30,17.90
2015,06,16,21,31,17.90
2015,06,16,21,32,17.80
2015,06,16,21,33,17.80
2015,06,16,21,34,17.80
2015,06,16,21,35,17.70
2015,06,16,21,36,17.70
2015,06,16,21,37,17.60
2015,06,16,21,38,17.60
2015,06,16,21,39,17.60
2015,06,16,21,40,17.50
2015,06,16,21,41,17.50
2015,06,16,21,42,17.40
2015,06,16,21,43,17.40
2015,06,16,21,44,17.30
2015,06,16,21,45,17.30
2015,06,16,21,46,17.20
2015,06,16,21,47,17.20
2015,06,16,21,48,17.10
2015,06,16,21,49,17.10
2015,06,16,21,50,17.00
2015,06,16,21,51,17.00
2015,06,16,21,52,16.90
2015,06,16,21,53,16.80
2015,06,16,21,54,16.80
2015,06,16,21,55,16.70
2015,06,16,21,56,16.70
2015,06,16,21,57,16.60
2015,06,16,21,58,16.60
2015,06,16,21,59,16.50
2015,06,16,22,00,16.50
2015,06,16,22,01,16.40
2015,06,16,22,02,16.40
2015,06,16,22,03,16.30
2015,06,16,22,04,16.30
2015,06,16,22,05,16.20
2015,06,16,22,06,16.20
2015,06,16,22,07,16.20
2015,06,16,22,08,16.10
2015,06,16,22,09,16.10
2015,06,16,22,10,16.10
2015,06,16,22,11,16.00
2015,06,16,22,12,16.00
2015,06,16,22,13,15.90
2015,06,16,22,14,15.90
2015,06,16,22,15,15.90
2015,06,16,22,16,15.90
2015,06,16,22,17,15.90
2015,06,16,22,18,15.80
2015,06,16,22,19,15.80
2015,06,16,22,20,15.80
2015,06,16,22,21,15.80
2015,06,16,22,22,15.80
2015,06,16,22,23,15.80
2015,06,16,22,24,15.80
2015,06,16,22,25,15.70
2015,06,16,22,26,15.70
2015,06,16,22,27,15.70
2015,06,16,22,28,15.70
2015,06,16,22,29,15.70
2015,06,16,22,30,15.70
2015,06,16,22,31,15.70
2015,06,16,22,32,15.60
2015,06,16,22,33,15.60
2015,06,16,22,34,15.60
2015,06,16,22,35,15.60
2015,06,16,22,36,15.60
2015,06,16,22,37,15.60
2015,06,16,22,38,15.60
2015,06,16,22,39,15.60
2015,06,16,22,40,15.60
2015,06,16,22,41,15.60
2015,06,16,22,42,15.60
2015,06,16,22,43,15.60
2015,06,16,22,44,15.60
2015,06,16,22,45,15.50
2015,06,16,22,46,15.50
2015,06,16,22,47,15.50
2015,06,16,22,48,15.50
2015,06,16,22,49,15.50
2015,06,16,22,50,15.50
2015,06,16,22,51,15.50
2015,06,16,22,52,15.40
2015,06,16,22,53,15.40
2015,06,16,22,54,15.40
2015,06,16,22,55,15.40
2015,06,16,22,56,15.40
2015,06,16,22,57,15.40
2015,06,16,22,58,15.40
2015,06,16,22,59,15.30
2015,06,16,23,00,15.30
2015,06,16,23,01,15.30
2015,06,16,23,02,15.30
2015,06,16,23,03,15.30
2015,06,16,23,04,15.20
2015,06,16,23,05,15.20
2015,06,16,23,06,15.20
2015,06,16,23,07,15.20
2015,06,16,23,08,15.10
2015,06,16,23,09,15.10
2015,06,16,23,10,15.10
2015,06,16,23,11,15.10
2015,06,16,23,12,15.00
2015,06,16,23,13,15.00
2015,06,16,23,14,15.00
2015,06,16,23,15,15.00
2015,06,16,23,16,15.00
2015,06,16,23,17,15.00
2015,06,16,23,18,15.00
2015,06,16,23,19,14.90
2015,06,16,23,20,14.90
2015,06,16,23,21,14.90
2015,06,16,23,22,14.90
2015,06,16,23,23,14.80
2015,06,16,23,24,14.80
2015,06,16,23,25,14.80
2015,06,16,23,26,14.80
2015,06,16,23,27,14.80
2015,06,16,23,28,14.80
2015,06,16,23,29,14.80
2015,06,16,23,30,14.80
2015,06,16,23,31,14.80
2015,06,16,23,32,14.70
2015,06,16,23,33,14.70
2015,06,16,23,34,14.70
2015,06,16,23,35,14.70
2015,06,16,23,36,14.70
2015,06,16,23,37,14.70
2015,06,16,23,38,14.70
2015,06,16,23,39,14.70
2015,06,16,23,40,14.60
2015,06,16,23,41,14.60
2015,06,16,23,42,14.60
2015,06,16,23,43,14.60
2015,06,16,23,44,14.60
2015,06,16,23,45,14.60
2015,06,16,23,46,14.60
2015,06,16,23,47,14.60
2015,06,16,23,48,14.50
2015,06,16,23,49,14.50
2015,06,16,23,50,14.60
2015,06,16,23,51,14.50
2015,06,16,23,52,14.50
2015,06,16,23,53,14.50
2015,06,16,23,54,14.50
2015,06,16,23,55,14.50
2015,06,16,23,56,14.50
2015,06,16,23,57,14.50
2015,06,16,23,58,14.50
2015,06,16,23,59,14.50
